TVS214A LHBP-LOWI

Flight info

Callsign TVS214A
Flight time 0h 59m
Altitude 38000
Route GILEP DCT ZOLKU DCT SUNIS DCT ROPAG DCT NANIT NANIT2A
Aircraft B737/M-SDE2E3FGHIRWXY/LB1

Departure

Time 2026-05-04 06:27
Airport Budapest Liszt Ferenc International Airport (LHBP)

Arrival

Time 2026-05-04 07:26
Airport Innsbruck Airport (LOWI)
Time Latitude Longitude Altitude Speed Heading
2026-05-04 05:57 47.43545 19.26014 456 ft 0 kts 312°
2026-05-04 06:25 47.43863 19.26084 457 ft 16 kts 42°
2026-05-04 06:25 47.43951 19.26203 457 ft 18 kts 42°
2026-05-04 06:26 47.44042 19.26332 462 ft 18 kts 53°
2026-05-04 06:26 47.44067 19.26506 469 ft 18 kts 99°
2026-05-04 06:26 47.43981 19.26665 467 ft 27 kts 132°
2026-05-04 06:26 47.43671 19.27164 470 ft 104 kts 133°
2026-05-04 06:27 47.41213 19.32238 2712 ft 186 kts 125°
2026-05-04 06:28 47.40504 19.34015 3042 ft 217 kts 125°
2026-05-04 06:28 47.39722 19.36040 3583 ft 233 kts 124°
2026-05-04 06:28 47.38913 19.38153 4467 ft 240 kts 123°
2026-05-04 06:28 47.37860 19.40103 5218 ft 250 kts 149°
2026-05-04 06:29 47.36212 19.40916 6044 ft 257 kts 179°
2026-05-04 06:29 47.34468 19.40399 6919 ft 266 kts 206°
2026-05-04 06:29 47.33015 19.38676 7812 ft 275 kts 230°
2026-05-04 06:29 47.31950 19.36290 8699 ft 283 kts 239°
2026-05-04 06:30 47.31005 19.33697 9581 ft 291 kts 242°
2026-05-04 06:30 47.30058 19.31018 10391 ft 301 kts 242°
2026-05-04 06:30 47.29039 19.28175 10664 ft 329 kts 241°
2026-05-04 06:30 47.27908 19.25085 10978 ft 352 kts 241°
2026-05-04 06:31 47.26718 19.21885 11681 ft 360 kts 240°
2026-05-04 06:31 47.25499 19.18637 12564 ft 364 kts 240°
2026-05-04 06:31 47.24262 19.15361 13458 ft 368 kts 240°
2026-05-04 06:31 47.23007 19.12050 14296 ft 373 kts 240°
2026-05-04 06:32 47.21734 19.08700 15117 ft 377 kts 240°
2026-05-04 06:33 47.27914 18.84883 20642 ft 398 kts 310°
2026-05-04 06:34 47.29647 18.81683 21375 ft 401 kts 309°
2026-05-04 06:34 47.31387 18.78436 22077 ft 405 kts 309°
2026-05-04 06:34 47.33131 18.75155 22762 ft 409 kts 309°
2026-05-04 06:34 47.34890 18.71833 23424 ft 413 kts 309°
2026-05-04 06:35 47.36639 18.68523 24010 ft 416 kts 309°
2026-05-04 06:36 47.44943 18.42609 27593 ft 436 kts 288°
2026-05-04 06:37 47.45801 18.38303 28087 ft 438 kts 288°
2026-05-04 06:37 47.46674 18.33973 28562 ft 441 kts 288°
2026-05-04 06:37 47.47551 18.29628 28999 ft 444 kts 288°
2026-05-04 06:37 47.48433 18.25242 29438 ft 446 kts 288°
2026-05-04 06:38 47.49240 18.20785 29875 ft 449 kts 286°
2026-05-04 06:38 47.50202 18.14825 30452 ft 451 kts 285°
2026-05-04 06:40 47.54884 17.84977 33502 ft 443 kts 277°
2026-05-04 06:40 47.54876 17.80405 33965 ft 444 kts 266°
2026-05-04 06:40 47.54349 17.75924 34426 ft 442 kts 256°
2026-05-04 06:40 47.53327 17.71673 34765 ft 443 kts 250°
2026-05-04 06:41 47.52145 17.67451 35032 ft 445 kts 249°
2026-05-04 06:41 47.50930 17.63245 35309 ft 445 kts 249°
2026-05-04 06:41 47.49712 17.59035 35657 ft 444 kts 249°
2026-05-04 06:41 47.48510 17.54844 35994 ft 442 kts 249°
2026-05-04 06:42 47.47319 17.50654 36296 ft 442 kts 249°
2026-05-04 06:42 47.46137 17.46466 36576 ft 441 kts 249°
2026-05-04 06:42 47.44959 17.42274 36870 ft 441 kts 249°
2026-05-04 06:44 47.36753 17.13179 38099 ft 438 kts 249°
2026-05-04 06:44 47.34413 17.04956 38093 ft 432 kts 249°
2026-05-04 06:45 47.32081 16.96783 38091 ft 431 kts 249°
2026-05-04 06:45 47.29754 16.88655 38094 ft 429 kts 249°
2026-05-04 06:46 47.27429 16.80561 38101 ft 429 kts 249°
2026-05-04 06:46 47.25098 16.72470 38106 ft 429 kts 248°
2026-05-04 06:48 47.15722 16.40084 38091 ft 432 kts 252°
2026-05-04 06:49 47.15015 16.35820 38102 ft 429 kts 263°
2026-05-04 06:50 47.18071 16.05613 38102 ft 430 kts 281°
2026-05-04 06:51 47.19198 15.96985 38095 ft 430 kts 281°
2026-05-04 06:51 47.20316 15.88336 38095 ft 430 kts 281°
2026-05-04 06:52 47.21416 15.79684 38092 ft 430 kts 278°
2026-05-04 06:52 47.22093 15.70958 38092 ft 429 kts 275°
2026-05-04 06:53 47.22621 15.62204 38092 ft 429 kts 275°
2026-05-04 06:53 47.23152 15.53481 38089 ft 428 kts 275°
2026-05-04 06:54 47.23700 15.44765 38090 ft 427 kts 275°
2026-05-04 06:54 47.24250 15.36086 38097 ft 426 kts 275°
2026-05-04 06:55 47.24797 15.27402 38092 ft 426 kts 275°
2026-05-04 06:55 47.25336 15.18715 38093 ft 425 kts 275°
2026-05-04 06:57 47.27424 14.83990 38105 ft 426 kts 275°
2026-05-04 06:58 47.27930 14.75303 38107 ft 425 kts 275°
2026-05-04 06:58 47.28425 14.66684 38098 ft 425 kts 275°
2026-05-04 06:59 47.28916 14.58020 38090 ft 424 kts 274°
2026-05-04 06:59 47.29399 14.49375 38105 ft 423 kts 274°
2026-05-04 07:01 47.31262 14.14882 38100 ft 422 kts 274°
2026-05-04 07:02 47.31712 14.06250 38094 ft 423 kts 274°
2026-05-04 07:02 47.32157 13.97586 38078 ft 424 kts 274°
2026-05-04 07:03 47.32596 13.88902 38093 ft 425 kts 274°
2026-05-04 07:03 47.32813 13.84551 37961 ft 427 kts 274°
2026-05-04 07:03 47.33031 13.80173 37669 ft 427 kts 273°
2026-05-04 07:04 47.33245 13.75816 37394 ft 425 kts 273°
2026-05-04 07:04 47.33458 13.71470 37100 ft 425 kts 273°
2026-05-04 07:04 47.33668 13.67122 36866 ft 426 kts 273°
2026-05-04 07:04 47.33878 13.62759 36594 ft 427 kts 273°
2026-05-04 07:05 47.34084 13.58453 36342 ft 427 kts 273°
2026-05-04 07:05 47.34291 13.54082 35804 ft 427 kts 273°
2026-05-04 07:05 47.34496 13.49717 35116 ft 427 kts 273°
2026-05-04 07:05 47.34700 13.45345 34318 ft 428 kts 273°
2026-05-04 07:06 47.35104 13.36553 32593 ft 430 kts 274°
2026-05-04 07:06 47.35303 13.32175 32011 ft 425 kts 274°
2026-05-04 07:06 47.35498 13.27836 31366 ft 422 kts 274°
2026-05-04 07:07 47.35690 13.23540 30791 ft 418 kts 274°
2026-05-04 07:08 47.36951 12.94323 25955 ft 402 kts 273°
2026-05-04 07:09 47.37122 12.90228 25359 ft 398 kts 273°
2026-05-04 07:09 47.37291 12.86171 24756 ft 395 kts 273°
2026-05-04 07:09 47.37456 12.82144 24135 ft 393 kts 273°
2026-05-04 07:09 47.37620 12.78119 23479 ft 392 kts 273°
2026-05-04 07:10 47.37781 12.74113 22797 ft 389 kts 272°
2026-05-04 07:10 47.37940 12.70149 22209 ft 384 kts 272°
2026-05-04 07:12 47.38975 12.43394 18201 ft 362 kts 271°
2026-05-04 07:12 47.39113 12.39698 17615 ft 359 kts 271°
2026-05-04 07:12 47.39249 12.36035 17054 ft 355 kts 271°
2026-05-04 07:12 47.39438 12.32407 16488 ft 353 kts 275°
2026-05-04 07:13 47.39756 12.28877 15769 ft 344 kts 276°
2026-05-04 07:13 47.40106 12.25424 14855 ft 343 kts 276°
2026-05-04 07:13 47.40463 12.21933 14094 ft 338 kts 276°
2026-05-04 07:14 47.41743 12.08635 11669 ft 308 kts 276°
2026-05-04 07:14 47.42030 12.05564 11584 ft 295 kts 276°
2026-05-04 07:15 47.42303 12.02611 11387 ft 286 kts 276°
2026-05-04 07:15 47.42565 11.99782 11315 ft 273 kts 276°
2026-05-04 07:15 47.42815 11.97061 11231 ft 261 kts 274°
2026-05-04 07:15 47.42620 11.94501 11131 ft 245 kts 243°
2026-05-04 07:16 47.41584 11.92628 11061 ft 232 kts 217°
2026-05-04 07:16 47.40258 11.91362 10937 ft 225 kts 211°
2026-05-04 07:16 47.38903 11.90216 10691 ft 223 kts 210°
2026-05-04 07:16 47.37570 11.89083 10472 ft 220 kts 210°
2026-05-04 07:17 47.36688 11.88325 10320 ft 221 kts 211°
2026-05-04 07:17 47.35363 11.87177 10105 ft 220 kts 210°
2026-05-04 07:17 47.34070 11.86037 9871 ft 214 kts 214°
2026-05-04 07:17 47.33191 11.84363 9616 ft 207 kts 254°
2026-05-04 07:18 47.32990 11.82324 9517 ft 194 kts 257°
2026-05-04 07:18 47.32743 11.80489 9424 ft 181 kts 255°
2026-05-04 07:18 47.32468 11.78636 9125 ft 187 kts 255°
2026-05-04 07:18 47.32200 11.76791 8797 ft 176 kts 254°
2026-05-04 07:19 47.31936 11.75036 8504 ft 175 kts 254°
2026-05-04 07:19 47.31662 11.73260 8188 ft 180 kts 254°
2026-05-04 07:19 47.31393 11.71476 7916 ft 180 kts 255°
2026-05-04 07:19 47.31123 11.69677 7619 ft 180 kts 255°
2026-05-04 07:20 47.30858 11.67894 7337 ft 174 kts 255°
2026-05-04 07:20 47.30596 11.66146 7046 ft 174 kts 255°
2026-05-04 07:20 47.30338 11.64416 6785 ft 176 kts 254°
2026-05-04 07:20 47.30072 11.62635 6501 ft 180 kts 255°
2026-05-04 07:22 47.28197 11.49983 4338 ft 172 kts 257°
2026-05-04 07:22 47.27948 11.48308 4064 ft 162 kts 257°
2026-05-04 07:23 47.27722 11.46767 3838 ft 147 kts 257°
2026-05-04 07:23 47.27512 11.45344 3629 ft 139 kts 257°
2026-05-04 07:23 47.27309 11.43967 3399 ft 140 kts 255°
2026-05-04 07:23 47.27105 11.42580 3158 ft 137 kts 255°
2026-05-04 07:24 47.26854 11.41241 2876 ft 135 kts 252°
2026-05-04 07:24 47.26619 11.39910 2582 ft 133 kts 258°
2026-05-04 07:24 47.26471 11.38576 2396 ft 131 kts 262°
2026-05-04 07:24 47.26334 11.37251 2213 ft 130 kts 261°
2026-05-04 07:25 47.26187 11.35921 1985 ft 131 kts 262°
2026-05-04 07:26 47.25791 11.34257 1896 ft 21 kts 81°
2026-05-04 07:27 47.25814 11.34469 1893 ft 21 kts 81°
2026-05-04 07:27 47.25838 11.34688 1890 ft 22 kts 81°
2026-05-04 07:27 47.25862 11.34910 1898 ft 23 kts 81°
2026-05-04 07:27 47.25883 11.35112 1888 ft 15 kts 81°
2026-05-04 07:28 47.25839 11.35194 1896 ft 4 kts 175°
2026-05-04 07:28 47.25830 11.35196 1894 ft 0 kts 171°